Tracking 25934 objects as of 11-Aug-2022
HD Live streaming from Space Station
objects crossing your sky now

PEGASUS R/B

Track PEGASUS R/B now!
10-day predictions


NORAD ID: 26375
Int'l Code: 2000-030B
Perigee: 414.4 km
Apogee: 1,387.3 km
Inclination: 69.0 °
Period: 102.9 minutes
Semi major axis: 7271 km
RCS: 1.4323 m2 (large)
Launch date: June 7, 2000
Source: United States (US)
Launch site: Pegasus launched from Western Range Air Space (WRAS)

Note: This is a ROCKET BODY
aabbcc
Your satellite tracking list
Your tracking list is empty




NASA's NSSDC Master Catalog

Two Line Element Set (TLE):
1 26375U 00030B   22222.81931165  .00001073  00000-0  10320-3 0  9990
2 26375  68.9554 142.0919 0668910 256.6251  95.9486 14.00026854466787
Source of the keplerian elements: AFSPC